GW1765 Weather Reports


time (UTC)temp
C
wind
direction
speed
KPH
gust
KPH
rain 1hr
cm
rain 24hr
cm
rain mn
cm
humidity
%
barometer
mb
20260506212025 16 5 29.0 43.5 0.00 0.00 0.00 87 1023.7
20260506211022 16 359 27.4 41.8 0.00 0.00 0.00 88 1023.8
20260506210016 16 17 27.4 45.1 0.00 0.00 0.00 89 1023.8
20260506205134 16 0 22.5 33.8 0.00 0.00 0.00 90 1023.9
20260506204110 16 6 25.7 37.0 0.00 0.00 0.00 91 1023.9
20260506203108 16 354 27.4 43.5 0.00 0.00 0.00 91 1024.0
20260506202103 16 344 25.7 33.8 0.00 0.00 0.00 91 1024.0
20260506201059 15 9 25.7 38.6 0.00 0.00 0.00 91 1024.0
20260506200057 15 360 27.4 37.0 0.00 0.00 0.00 92 1023.9
20260506195054 15 353 29.0 38.6 0.00 0.00 0.00 92 1023.9
20260506194049 15 1 25.7 33.8 0.00 0.00 0.00 92 1023.8
20260506193045 15 343 27.4 35.4 0.00 0.00 0.00 92 1023.8
20260506192044 15 356 25.7 38.6 0.00 0.00 0.00 92 1023.9
20260506191038 15 343 25.7 40.2 0.00 0.00 0.00 91 1023.9
20260506190035 15 359 24.1 37.0 0.00 0.00 0.00 90 1023.9
20260506185033 15 343 25.7 38.6 0.00 0.00 0.00 89 1024.0
20260506184048 15 351 27.4 37.0 0.00 0.00 0.00 88 1024.1
20260506183025 15 18 25.7 41.8 0.00 0.00 0.00 88 1024.1
20260506182041 15 312 25.7 33.8 0.00 0.00 0.00 88 1024.2
20260506181018 15 347 24.1 37.0 0.00 0.00 0.00 87 1024.3
20260506180117 15 8 24.1 33.8 0.00 0.00 0.00 87 1024.2
20260506175111 15 9 25.7 33.8 0.00 0.00 0.00 86 1024.2
20260506174110 15 348 25.7 37.0 0.00 0.00 0.00 86 1024.3
20260506173105 15 356 27.4 37.0 0.00 0.00 0.00 85 1024.4
20260506172100 15 8 30.6 45.1 0.00 0.00 0.00 86 1024.4
20260506171119 15 355 29.0 48.3 0.00 0.00 0.00 87 1024.4
20260506170053 15 355 24.1 41.8 0.00 0.00 0.00 88 1024.3
20260506165049 15 353 25.7 37.0 0.00 0.00 0.00 88 1024.2
20260506164047 15 351 24.1 33.8 0.00 0.00 0.00 87 1024.3
20260506163042 15 7 20.9 32.2 0.00 0.00 0.00 86 1024.4
20260506162039 15 342 22.5 35.4 0.00 0.00 0.00 86 1024.5
20260506161035 15 360 22.5 37.0 0.00 0.00 0.00 85 1024.8
20260506160034 16 16 24.1 37.0 0.00 0.00 0.00 86 1025.0
20260506155028 15 8 24.1 35.4 0.00 0.00 0.00 86 1025.1
20260506154106 15 3 22.5 33.8 0.00 0.00 0.00 86 1025.2
20260506153023 15 354 24.1 38.6 0.00 0.00 0.00 87 1025.3
20260506152018 15 350 24.1 40.2 0.00 0.00 0.00 88 1025.5
20260506151116 15 3 22.5 37.0 0.00 0.00 0.00 87 1025.6
20260506150111 15 353 20.9 29.0 0.00 0.00 0.00 86 1025.7
20260506145109 15 353 22.5 37.0 0.00 0.00 0.00 85 1026.0
20260506144124 16 8 22.5 35.4 0.00 0.00 0.00 85 1026.1
20260506143101 16 14 25.7 43.5 0.00 0.00 0.00 84 1026.2
20260506142059 16 353 24.1 37.0 0.00 0.00 0.00 84 1026.2
20260506141116 16 346 24.1 33.8 0.00 0.00 0.00 84 1026.4
20260506140050 16 356 22.5 43.5 0.00 0.00 0.00 84 1026.4
20260506135046 16 17 27.4 38.6 0.00 0.00 0.00 84 1026.4
20260506134043 16 357 22.5 35.4 0.00 0.00 0.00 85 1026.4
20260506133100 16 14 25.7 41.8 0.00 0.00 0.00 86 1026.4
20260506132057 16 12 24.1 37.0 0.00 0.00 0.00 86 1026.4
20260506131031 16 356 24.1 37.0 0.00 0.00 0.00 86 1026.5
20260506130028 16 347 19.3 33.8 0.00 0.00 0.00 87 1026.4
20260506125024 16 9 25.7 38.6 0.00 0.00 0.00 87 1026.6
20260506124021 16 346 17.7 29.0 0.00 0.00 0.00 87 1026.7
20260506123017 16 342 22.5 33.8 0.00 0.00 0.00 87 1026.7
20260506122116 16 340 20.9 27.4 0.00 0.00 0.00 87 1026.7
20260506121111 16 359 24.1 37.0 0.00 0.00 0.00 86 1026.8
20260506120109 16 5 20.9 30.6 0.00 0.00 0.00 86 1026.7
20260506115104 16 5 19.3 29.0 0.00 0.00 0.00 86 1026.7
20260506114102 16 0 20.9 32.2 0.00 0.00 0.00 85 1026.7
20260506113058 16 8 22.5 37.0 0.00 0.00 0.00 86 1026.7
20260506112054 16 359 19.3 33.8 0.00 0.00 0.00 86 1026.7
20260506111051 16 356 20.9 32.2 0.00 0.00 0.00 86 1026.8
20260506110046 15 335 16.1 25.7 0.00 0.00 0.00 86 1026.8
20260506105043 15 23 17.7 25.7 0.00 0.00 0.00 86 1026.8
20260506104039 15 5 16.1 25.7 0.00 0.00 0.00 86 1026.9
20260506103035 15 351 16.1 27.4 0.00 0.00 0.00 85 1026.8
20260506102034 15 12 16.1 22.5 0.00 0.00 0.00 85 1026.8
20260506101049 15 348 14.5 20.9 0.00 0.00 0.00 85 1026.8
20260506100025 15 2 16.1 24.1 0.00 0.00 0.00 84 1026.7
20260506095021 15 7 14.5 19.3 0.00 0.00 0.00 83 1026.8
20260506094018 15 356 12.9 19.3 0.00 0.00 0.00 83 1026.8
20260506093139 15 3 12.9 20.9 0.00 0.00 0.00 82 1026.8
20260506092111 15 20 12.9 20.9 0.00 0.00 0.00 82 1026.9
20260506091108 15 359 11.3 17.7 0.00 0.00 0.00 81 1026.8
20260506090106 15 358 9.7 17.7 0.00 0.00 0.00 80 1026.8
20260506085101 15 1 9.7 16.1 0.00 0.00 0.00 80 1026.9
20260506084119 15 27 9.7 12.9 0.00 0.00 0.00 80 1026.9
20260506083055 15 3 11.3 14.5 0.00 0.00 0.00 80 1027.1
20260506082052 15 350 9.7 14.5 0.00 0.00 0.00 82 1027.2
20260506081049 14 352 8.0 17.7 0.00 0.00 0.00 83 1027.2
20260506073116 14 8 6.4 9.7 0.00 0.00 0.00 85 1027.3
20260506072029 15 353 6.4 9.7 0.00 0.00 0.00 86 1027.3
20260506071026 15 5 8.0 12.9 0.00 0.00 0.00 86 1027.3
20260506062152 15 28 6.4 11.3 0.00 0.00 0.00 84 1027.3
20260506061106 15 8 6.4 12.9 0.00 0.00 0.00 84 1027.4
20260506060105 15 357 6.4 11.3 0.00 0.00 0.00 83 1027.3
20260506051107 17 342 14.5 24.1 0.00 0.00 0.00 74 1027.3
20260506045039 18 349 17.7 24.1 0.00 0.00 0.00 72 1027.4
20260506044055 18 360 16.1 25.7 0.00 0.00 0.00 72 1027.4
20260506043032 18 340 16.1 27.4 0.00 0.00 0.00 72 1027.5
20260506042028 18 328 16.1 24.1 0.00 0.00 0.00 72 1027.5
20260506041025 18 346 16.1 27.4 0.00 0.00 0.00 72 1027.7
20260506040021 18 0 19.3 27.4 0.00 0.00 0.00 72 1027.7
20260506035017 18 326 19.3 32.2 0.00 0.00 0.00 73 1027.7
20260506034117 18 338 20.9 29.0 0.00 0.00 0.00 73 1027.7
20260506033113 18 328 20.9 27.4 0.00 0.00 0.00 73 1027.6
20260506032109 18 346 22.5 37.0 0.00 0.00 0.00 72 1027.7
20260506031144 18 334 24.1 33.8 0.00 0.00 0.00 72 1027.7
20260506030100 18 356 20.9 27.4 0.00 0.00 0.00 72 1027.7
20260506025057 18 312 20.9 29.0 0.00 0.00 0.00 72 1027.7
20260506024053 18 356 20.9 29.0 0.00 0.00 0.00 72 1027.6
20260506023132 18 352 17.7 27.4 0.00 0.00 0.00 72 1027.7
20260506022046 18 345 20.9 29.0 0.00 0.00 0.00 72 1027.7
20260506021103 18 348 22.5 30.6 0.00 0.00 0.00 72 1027.9
20260506020040 18 349 20.9 27.4 0.00 0.00 0.00 73 1028.0
20260506015037 18 0 20.9 29.0 0.00 0.00 0.00 71 1028.0
20260506014054 19 354 14.5 29.0 0.00 0.00 0.00 72 1028.0
20260506013030 18 357 22.5 33.8 0.00 0.00 0.00 72 1028.0
20260506012025 18 352 17.7 27.4 0.00 0.00 0.00 72 1028.0
20260506011022 18 15 19.3 33.8 0.00 0.00 0.00 73 1028.1
20260506010018 18 358 20.9 37.0 0.00 0.00 0.00 74 1028.2
20260506005115 18 336 22.5 37.0 0.00 0.00 0.00 74 1028.4
20260506004111 17 8 17.7 24.1 0.00 0.00 0.00 74 1028.5
20260506003110 17 359 22.5 29.0 0.00 0.00 0.00 74 1028.7
20260506002107 17 334 22.5 30.6 0.00 0.00 0.00 76 1029.0
20260506001102 17 347 20.9 33.8 0.00 0.00 0.00 77 1029.1
20260506000057 17 347 19.3 25.7 0.00 0.00 0.00 81 1029.2
20260505235054 17 349 17.7 25.7 0.00 0.00 0.00 80 1029.2
20260505234111 17 341 17.7 25.7 0.00 0.00 0.00 79 1029.1
20260505233048 17 350 16.1 24.1 0.00 0.00 0.00 75 1029.3
20260505231041 17 3 17.7 25.7 0.00 0.00 0.00 74 1029.4
20260505230037 18 0 19.3 32.2 0.00 0.00 0.00 72 1029.4
20260505225035 18 356 19.3 30.6 0.00 0.00 0.00 72 1029.5
20260505224032 18 2 20.9 33.8 0.00 0.00 0.00 71 1029.4
20260505223027 18 6 16.1 25.7 0.00 0.00 0.00 72 1029.5
20260505222023 18 7 19.3 29.0 0.00 0.00 0.00 72 1029.4
20260505221020 17 359 17.7 24.1 0.00 0.00 0.00 72 1029.5
20260505220038 17 8 20.9 32.2 0.00 0.00 0.00 73 1029.5
20260505215115 17 1 19.3 27.4 0.00 0.00 0.00 76 1029.6
20260505214110 17 2 17.7 27.4 0.00 0.00 0.00 74 1029.6
20260505213107 17 359 17.7 29.0 0.00 0.00 0.00 79 1029.7